Hourly Data Report for October 06, 2017

All times are specified in Local Standard Time (LST). Add 1 hour to adjust for Daylight Saving Time where and when it is observed.

NORTHEAST MARGAREE (AUT)
NOVA SCOTIA

46°22'06.090" N
60°58'33.080" W
54.00 m
8204154
WNS

Related Data

No related data is available for this station

Download Data

Hourly Data (October 2017)
Hourly Data Report for October 6, 2017
Temp Definition
°C
Dew Point Temp Definition
°C
Rel Hum Definition
%
Wind Dir Definition
10's deg

Wind Spd Definition
km/h
Visibility Definition
km
Stn Press Definition
kPa
Hmdx Definition


Wind Chill Definition


Weather Definition


TIME
00:00 5.1 4.3 95 0 1   100.79     LegendNANA
01:00 3.9 3.2 95 18 2   100.75     LegendNANA
02:00 3.3 2.6 96 1 2   100.72     LegendNANA
03:00 2.6 1.9 96   0   100.70     LegendNANA
04:00 3.8 3.2 96 1 2   100.70     LegendNANA
05:00 4.5 3.9 95 1 2   100.73     LegendNANA
06:00 5.4 4.7 95 1 5   100.75     LegendNANA
07:00 5.6 5.0 95 20 4   100.80     LegendNANA
08:00 8.1 7.6 97   0   100.81     LegendNANA
09:00 10.5 9.7 95 1 3   100.84     LegendNANA
10:00 13.4 10.1 80 33 6   100.90     LegendNANA
11:00 14.9 8.7 66 33 9   100.88     LegendNANA
12:00 15.5 9.7 68 29 8   100.87     LegendNANA
13:00 15.9 7.8 59 33 9   100.86     LegendNANA
14:00 15.6 8.1 61 24 8   100.90     LegendNANA
15:00 15.0 7.1 59 33 8   100.93     LegendNANA
16:00 13.1 7.3 68 32 5   100.95     LegendNANA
17:00 12.2 8.1 76 29 1   101.04     LegendNANA
18:00 10.3 8.1 86   0   101.05     LegendNANA
19:00 9.9 8.3 90 14 2   101.08     LegendNANA
20:00 8.6 7.3 92 34 3   101.12     LegendNANA
21:00 6.8 5.7 93 3 3   101.16     LegendNANA
22:00 5.2 4.4 94 17 2   101.24     LegendNANA
23:00 5.4 4.7 95 1 1   101.29     LegendNANA

Notes on Data Quality.

Legend

  • E = Estimated
  • M = Missing
  • NA = Not Available
  • ‡ = Partner data that is not subject to review by the National Climate Archives
Date modified: